sat.trackr.live / text

‹ back to catalog

STARLINK-32326

NORAD 61674 · 2024-193P

PAYLOAD ACTIVE UNKNOWN

§ Identity

Operator
Country
US
Launch date
2024-10-26
Launch site
AFETR
Launch vehicle
Mass (kg)
RCS (m²)

Purposes: comms

External: N2YO · Heavens-Above · Gunter

§ Orbital elements

Epoch: 2026-05-25T03:16:30.259776Z

Period
94.11 min
Inclination
53.1613°
Eccentricity
0.0001405
Mean motion
15.30188317 rev/d
Perigee alt
474.3 km
Apogee alt
476.2 km
Semi-major
6,853.4 km
B*
8.6146e-5
RAAN
95.7283°
Arg perigee
84.9755°
Mean anomaly
275.1406°
Rev number
8,823

§ Raw data

STARLINK-323261 61674U 24193P   26145.13646134  .00002192  00000+0  86146-4 0  99912 61674  53.1613  95.7283 0001405  84.9755 275.1406 15.30188317 88230

JSON: /api/v1/satellites/61674 · /tle

For live sub-satellite position, see the globe view (requires WebGL).

§ Visibility from observer

Set your observer location to see the next 7 days of passes ≥ 10°. The values pass through the URL so the page stays shareable.

No JS? Fill the form by hand. The geolocation button needs JavaScript.